Weather History for Point Pleasant, WV

Change the Weather History Date:

Wednesday, July 17, 2013

  Actual Average (KHTS) Record (KHTS)
Temperature  
Mean Temperature 84 °F 76 °F  
Max Temperature 96 °F 86 °F 100 °F (1988)
Min Temperature 73 °F 66 °F 52 °F (1954)
Degree Days  
Heating Degree Days 0 0  
Month to date heating degree days 0  
Since 1 June heating degree days 12  
Since 1 July heating degree days 0  
Cooling Degree Days 20 11  
Month to date cooling degree days 184  
Year to date cooling degree days 522  
Since 1 June cooling degree days 409  
Growing Degree Days 34 (Base 50)    
Moisture  
Dew Point 75 °F    
Average Humidity 78    
Maximum Humidity 100    
Minimum Humidity 44    
Precipitation  
Precipitation 0.00 in 0.16 in 1.14 in (1910)
Month to date precipitation 2.42  
Year to date precipitation 24.38  
Snow  
Snow 0.00 in - - ()
Month to date snowfall  
Since 1 September snowfall  
Snow Depth -    
Sea Level Pressure  
Sea Level Pressure 30.27 in    
Wind  
Wind Speed 0 mph (NE)    
Max Wind Speed 6 mph    
Max Gust Speed -    
Visibility 8 miles    
Events Rain    
T = Trace of Precipitation, MM = Missing Value Source: NWS Daily Summary

Daily Weather History Graph

Daily Weather History Graph

Search for Another Location

Airport:

Trip Planner

Search our weather history database for the weather conditions in past years. The results will help you decide how hot, cold, wet, or windy it might be!

Date:

Astronomy

Jul. 17, 2013 Rise Set
Actual Time 6:17 AM EDT 8:51 PM EDT
Civil Twilight 5:46 AM EDT 9:22 PM EDT
Nautical Twilight 5:07 AM EDT 10:01 PM EDT
Astronomical Twilight 4:24 AM EDT 10:44 PM EDT
Moon 3:40 PM EDT (7/17) 1:22 AM EDT (7/17)
Length of Visible Light 15h 36m
Length of Day
14h 34m
Waxing Gibbous, 67% of the Moon is Illuminated
Jul 17
Waxing Gibbous
Jul 22
Full
Jul 29
Last Quarter
Aug 6
New
Aug 14
First Quarter

Hourly Weather History & Observations

Time (EDT) Temp. Heat Index Dew Point Humidity Pressure Visibility Wind Dir Wind Speed Gust Speed Precip Events Conditions
12:15 AM 78.8 °F - 75.2 °F 89% 30.30 in 7.0 mi Calm Calm - N/A   Mostly Cloudy
12:35 AM 78.8 °F - 75.2 °F 89% 30.30 in 5.0 mi Calm Calm - N/A   Scattered Clouds
12:55 AM 78.8 °F - 75.2 °F 89% 30.29 in 5.0 mi Calm Calm - N/A   Clear
1:15 AM 77.0 °F - 75.2 °F 94% 30.29 in 5.0 mi Calm Calm - N/A   Clear
1:35 AM 77.0 °F - 75.2 °F 94% 30.28 in 5.0 mi Calm Calm - N/A   Scattered Clouds
1:55 AM 77.0 °F - 73.4 °F 89% 30.28 in 5.0 mi Calm Calm - N/A   Scattered Clouds
2:15 AM 77.0 °F - 73.4 °F 89% 30.27 in 5.0 mi Calm Calm - N/A   Clear
2:35 AM 77.0 °F - 73.4 °F 89% 30.28 in 4.0 mi Calm Calm - N/A   Scattered Clouds
2:55 AM 75.2 °F - 73.4 °F 94% 30.28 in 5.0 mi Calm Calm - N/A   Scattered Clouds
3:15 AM 75.2 °F - 73.4 °F 94% 30.28 in 4.0 mi Calm Calm - N/A   Clear
3:35 AM 75.2 °F - 73.4 °F 94% 30.28 in 7.0 mi Calm Calm - N/A   Scattered Clouds
3:55 AM 75.2 °F - 73.4 °F 94% 30.28 in 5.0 mi Calm Calm - N/A   Scattered Clouds
4:15 AM 73.4 °F - 73.4 °F 100% 30.29 in 4.0 mi Calm Calm - N/A   Scattered Clouds
4:35 AM 73.4 °F - 71.6 °F 94% 30.29 in 4.0 mi Calm Calm - N/A   Scattered Clouds
4:55 AM 73.4 °F - 71.6 °F 94% 30.29 in 7.0 mi Calm Calm - N/A   Scattered Clouds
5:15 AM 73.4 °F - 71.6 °F 94% 30.30 in 5.0 mi Calm Calm - N/A   Mostly Cloudy
5:35 AM 73.4 °F - 71.6 °F 94% 30.30 in 7.0 mi Calm Calm - N/A   Scattered Clouds
5:55 AM 73.4 °F - 71.6 °F 94% 30.30 in 5.0 mi Calm Calm - N/A   Scattered Clouds
6:15 AM 73.4 °F - 71.6 °F 94% 30.31 in 3.0 mi Calm Calm - N/A   Mist
6:35 AM 73.4 °F - 71.6 °F 94% 30.32 in 4.0 mi Calm Calm - N/A   Overcast
6:55 AM 73.4 °F - 71.6 °F 94% 30.32 in 4.0 mi Calm Calm - N/A   Overcast
7:15 AM 73.4 °F - 71.6 °F 94% 30.32 in 5.0 mi Calm Calm - N/A   Overcast
7:35 AM 75.2 °F - 73.4 °F 94% 30.32 in 3.0 mi Calm Calm - N/A   Overcast
7:55 AM 77.0 °F - 75.2 °F 94% 30.32 in 5.0 mi Calm Calm - N/A   Overcast
8:15 AM 78.8 °F - 75.2 °F 89% 30.32 in 7.0 mi Calm Calm - N/A   Overcast
8:35 AM 80.6 °F 86.2 °F 75.2 °F 84% 30.33 in 7.0 mi Calm Calm - N/A   Mostly Cloudy
8:55 AM 82.4 °F 89.5 °F 75.2 °F 79% 30.33 in 7.0 mi Calm Calm - N/A   Scattered Clouds
9:15 AM 86.0 °F 95.1 °F 75.2 °F 70% 30.33 in 10.0 mi Calm Calm - N/A   Clear
9:35 AM 87.8 °F 97.6 °F 75.2 °F 66% 30.33 in 10.0 mi Calm Calm - N/A   Clear
9:55 AM 87.8 °F 97.6 °F 75.2 °F 66% 30.33 in 10.0 mi Calm Calm - N/A   Clear
10:15 AM 89.6 °F 98.2 °F 73.4 °F 59% 30.33 in 10.0 mi NNE 3.5 mph - N/A   Clear
10:35 AM 89.6 °F 98.2 °F 73.4 °F 59% 30.32 in 10.0 mi Calm Calm - N/A   Clear
10:55 AM 89.6 °F 98.2 °F 73.4 °F 59% 30.32 in 10.0 mi Calm Calm - N/A   Clear
11:15 AM 89.6 °F 98.2 °F 73.4 °F 59% 30.32 in 10.0 mi Calm Calm - N/A   Clear
11:35 AM 91.4 °F 100.1 °F 73.4 °F 55% 30.32 in 10.0 mi NE 4.6 mph - N/A   Clear
11:55 AM 95.0 °F 104.5 °F 73.4 °F 49% 30.31 in 10.0 mi East 5.8 mph - N/A   Clear
12:15 PM 93.2 °F 100.5 °F 71.6 °F 49% 30.31 in 7.0 mi Calm Calm - N/A   Clear
12:35 PM 95.0 °F 103.2 °F 71.6 °F 47% 30.30 in 10.0 mi East 4.6 mph - N/A   Scattered Clouds
12:55 PM 95.0 °F 103.2 °F 71.6 °F 47% 30.30 in 7.0 mi Calm Calm - N/A   Clear
1:15 PM 95.0 °F 103.2 °F 71.6 °F 47% 30.29 in 10.0 mi East 5.8 mph - N/A   Clear
1:35 PM 96.8 °F 105.1 °F 71.6 °F 44% 30.29 in 10.0 mi Calm Calm - N/A   Clear
1:55 PM 87.8 °F 97.6 °F 75.2 °F 66% 30.30 in 4.0 mi Calm Calm - N/A Rain Heavy Rain
2:15 PM 80.6 °F 86.2 °F 75.2 °F 84% 30.28 in 10.0 mi Calm Calm - N/A Rain Light Rain
2:35 PM 80.6 °F 86.2 °F 75.2 °F 84% 30.27 in 7.0 mi Calm Calm - N/A   Scattered Clouds
2:55 PM 80.6 °F 88.1 °F 78.8 °F 94% 30.26 in 5.0 mi Calm Calm - N/A   Clear
3:15 PM 80.6 °F 87.1 °F 77.0 °F 89% 30.26 in 7.0 mi Calm Calm - N/A   Clear
3:35 PM 82.4 °F 90.9 °F 77.0 °F 84% 30.25 in 7.0 mi Calm Calm - N/A   Clear
3:55 PM 89.6 °F 104.7 °F 78.8 °F 70% 30.24 in 7.0 mi Calm Calm - N/A   Clear
4:15 PM 89.6 °F 104.7 °F 78.8 °F 70% 30.23 in 10.0 mi Calm Calm - N/A   Clear
4:35 PM 89.6 °F 99.8 °F 75.2 °F 62% 30.23 in 10.0 mi Calm Calm - N/A   Clear
4:55 PM 91.4 °F 100.1 °F 73.4 °F 55% 30.22 in 10.0 mi Calm Calm - N/A   Clear
5:15 PM 91.4 °F 102.5 °F 75.2 °F 59% 30.21 in 10.0 mi North 3.5 mph - N/A   Clear
5:35 PM 91.4 °F 102.5 °F 75.2 °F 59% 30.21 in 10.0 mi Calm Calm - N/A   Clear
5:55 PM 91.4 °F 100.1 °F 73.4 °F 55% 30.19 in 10.0 mi Calm Calm - N/A   Clear
6:15 PM 91.4 °F 102.5 °F 75.2 °F 59% 30.19 in 10.0 mi Calm Calm - N/A   Clear
6:35 PM 89.6 °F 98.2 °F 73.4 °F 59% 30.20 in 10.0 mi Calm Calm - N/A   Clear
6:55 PM 89.6 °F 102.2 °F 77.0 °F 66% 30.20 in 10.0 mi Calm Calm - N/A   Clear
7:15 PM 89.6 °F 102.2 °F 77.0 °F 66% 30.21 in 10.0 mi Calm Calm - N/A   Clear
7:35 PM 86.0 °F 99.3 °F 78.8 °F 79% 30.20 in 10.0 mi Calm Calm - N/A   Clear
7:55 PM 86.0 °F 99.3 °F 78.8 °F 79% 30.20 in 7.0 mi Calm Calm - N/A   Clear
8:15 PM 84.2 °F 94.1 °F 77.0 °F 79% 30.20 in 10.0 mi Calm Calm - N/A   Clear
8:35 PM 82.4 °F 90.9 °F 77.0 °F 84% 30.19 in 10.0 mi Calm Calm - N/A   Clear
8:55 PM 82.4 °F 90.9 °F 77.0 °F 84% 30.18 in 10.0 mi Calm Calm - N/A   Clear
9:15 PM 80.6 °F 87.1 °F 77.0 °F 89% 30.19 in 10.0 mi Calm Calm - N/A   Clear
9:35 PM 80.6 °F 87.1 °F 77.0 °F 89% 30.21 in 10.0 mi Calm Calm - N/A   Clear
9:55 PM 80.6 °F 87.1 °F 77.0 °F 89% 30.22 in 10.0 mi Calm Calm - N/A   Clear
10:15 PM 78.8 °F - 75.2 °F 89% 30.23 in 10.0 mi Calm Calm - N/A   Clear
10:35 PM 78.8 °F - 75.2 °F 89% 30.23 in 10.0 mi Calm Calm - N/A   Clear
10:55 PM 78.8 °F - 75.2 °F 89% 30.23 in 10.0 mi Calm Calm - N/A   Clear
11:15 PM 78.8 °F - 75.2 °F 89% 30.23 in 7.0 mi Calm Calm - N/A   Clear
11:35 PM 78.8 °F - 75.2 °F 89% 30.23 in 5.0 mi Calm Calm - N/A   Clear
11:55 PM 77.0 °F - 75.2 °F 94% 30.22 in 5.0 mi Calm Calm - N/A   Scattered Clouds